Weather History for Bangkok (Suvarnabhumi), Thailand

Change the Weather History Date:

Friday, May 9, 2014

  Actual Average (VTBD) Record (VTBD)
Temperature  
Mean Temperature 88 °F -  
Max Temperature 97 °F 92 °F 100 °F (1997)
Min Temperature 78 °F 78 °F 75 °F (1999)
Cooling Degree Days 22    
Growing Degree Days 38 (Base 50)    
Moisture  
Dew Point 75 °F    
Average Humidity 61    
Maximum Humidity 79    
Minimum Humidity 40    
Precipitation  
Precipitation 0.00 in 0.21 in - ()
Sea Level Pressure  
Sea Level Pressure 29.78 in    
Wind  
Wind Speed 8 mph ()    
Max Wind Speed 15 mph    
Max Gust Speed -    
Visibility 6.2 miles    
Events Thunderstorm    
Averages and records for this station are not official NWS values.
T = Trace of Precipitation, MM = Missing Value Source: Averaged Metar Reports

Daily Weather History Graph

Daily Weather History Graph

Search for Another Location

Airport:

Trip Planner

Search our weather history database for the weather conditions in past years. The results will help you decide how hot, cold, wet, or windy it might be!

Date:

Astronomy

May. 09, 2014 Rise Set
Actual Time 5:52 AM ICT 6:33 PM ICT
Civil Twilight 5:29 AM ICT 6:55 PM ICT
Nautical Twilight 5:03 AM ICT 7:21 PM ICT
Astronomical Twilight 4:36 AM ICT 7:48 PM ICT
Moon 1:54 PM ICT (5/9) 1:40 AM ICT (5/9)
Length of Visible Light 13h 26m
Length of Day
12h 41m
Waxing Gibbous, 69% of the Moon is Illuminated
May 9
Waxing Gibbous
May 15
Full
May 21
Last Quarter
May 29
New
Jun 6
First Quarter

Hourly Weather History & Observations

Time (ICT) Temp. Heat Index Dew Point Humidity Pressure Visibility Wind Dir Wind Speed Gust Speed Precip Events Conditions
12:00 AM 86.0 °F 96.9 °F 77.0 °F 74% 29.83 in 6.2 mi SSW 10.4 mph - N/A   Scattered Clouds
12:30 AM 86.0 °F 96.9 °F 77.0 °F 74% 29.80 in 6.2 mi South 11.5 mph - N/A   Scattered Clouds
1:00 AM 84 °F - 78 °F 77% 29.80 in 6 mi Calm Calm - -  
1:00 AM 86.0 °F 95.1 °F 75.2 °F 70% 29.80 in 6.2 mi South 10.4 mph - N/A   Scattered Clouds
1:30 AM 86.0 °F 95.1 °F 75.2 °F 70% 29.80 in 6.2 mi South 12.7 mph - N/A   Mostly Cloudy
2:00 AM 86.0 °F 95.1 °F 75.2 °F 70% 29.77 in 6.2 mi SSW 9.2 mph - N/A   Mostly Cloudy
2:30 AM 86.0 °F 95.1 °F 75.2 °F 70% 29.77 in 6.2 mi South 10.4 mph - N/A   Mostly Cloudy
3:00 AM 84.2 °F 92.3 °F 75.2 °F 74% 29.77 in 6.2 mi SSW 6.9 mph - N/A   Mostly Cloudy
3:30 AM 86.0 °F 95.1 °F 75.2 °F 70% 29.77 in 6.2 mi South 9.2 mph - N/A   Mostly Cloudy
4:00 AM 84 °F - 78 °F 77% 29.76 in 6 mi Calm Calm - -  
4:00 AM 86.0 °F 95.1 °F 75.2 °F 70% 29.77 in 6.2 mi South 8.1 mph - N/A   Mostly Cloudy
4:30 AM 86.0 °F 96.9 °F 77.0 °F 74% 29.77 in 6.2 mi South 8.1 mph - N/A   Mostly Cloudy
5:00 AM 86.0 °F 96.9 °F 77.0 °F 74% 29.77 in 6.2 mi South 8.1 mph - N/A   Mostly Cloudy
5:30 AM 86.0 °F 96.9 °F 77.0 °F 74% 29.77 in 6.2 mi South 9.2 mph - N/A   Mostly Cloudy
6:00 AM 84.2 °F 94.1 °F 77.0 °F 79% 29.77 in 6.2 mi SSW 6.9 mph - N/A   Mostly Cloudy
6:30 AM 86.0 °F 96.9 °F 77.0 °F 74% 29.80 in 6.2 mi SSW 5.8 mph - N/A   Mostly Cloudy
7:00 AM 86 °F - 78 °F 72% 29.80 in 6 mi Calm Calm - -   Clear
7:00 AM 87.8 °F 99.7 °F 77.0 °F 70% 29.80 in 6.2 mi SSW 6.9 mph - N/A   Mostly Cloudy
7:30 AM 87.8 °F 99.7 °F 77.0 °F 70% 29.83 in 6.2 mi South 10.4 mph - N/A   Mostly Cloudy
8:00 AM 89.6 °F 102.2 °F 77.0 °F 66% 29.83 in 6.2 mi SSW 9.2 mph - N/A   Mostly Cloudy
8:30 AM 91.4 °F 102.5 °F 75.2 °F 59% 29.83 in 6.2 mi SW 8.1 mph - N/A   Mostly Cloudy
9:00 AM 91.4 °F 105.1 °F 77.0 °F 63% 29.83 in 6.2 mi SSW 9.2 mph - N/A   Mostly Cloudy
9:30 AM 91.4 °F 102.5 °F 75.2 °F 59% 29.83 in 6.2 mi South 9.2 mph - N/A   Mostly Cloudy
10:00 AM 93 °F - 78 °F 53% 29.83 in 6 mi Calm Calm - -   Scattered Clouds
10:00 AM 91.4 °F 102.5 °F 75.2 °F 59% 29.83 in 6.2 mi South 11.5 mph - N/A   Mostly Cloudy
10:30 AM 93.2 °F 105.0 °F 75.2 °F 56% 29.83 in 6.2 mi SW 9.2 mph - N/A   Mostly Cloudy
11:00 AM 93.2 °F 105.0 °F 75.2 °F 56% 29.83 in 6.2 mi SSW 13.8 mph - N/A   Mostly Cloudy
11:30 AM 93.2 °F 105.0 °F 75.2 °F 56% 29.80 in 6.2 mi SSW 11.5 mph - N/A   Mostly Cloudy
12:00 PM 95.0 °F 107.4 °F 75.2 °F 53% 29.80 in 6.2 mi SW 11.5 mph - N/A   Mostly Cloudy
12:30 PM 95.0 °F 107.4 °F 75.2 °F 53% 29.80 in 6.2 mi SSW 13.8 mph - N/A   Mostly Cloudy
1:00 PM 97 °F - 75 °F 40% 29.78 in 6 mi Calm Calm - -   Scattered Clouds
1:00 PM 93.2 °F 102.4 °F 73.4 °F 52% 29.77 in 6.2 mi South 12.7 mph - N/A   Scattered Clouds
1:30 PM 95.0 °F 104.5 °F 73.4 °F 49% 29.77 in 6.2 mi SSW 12.7 mph - N/A   Scattered Clouds
2:00 PM 95.0 °F 103.2 °F 71.6 °F 47% 29.74 in 6.2 mi South 11.5 mph - N/A   Scattered Clouds
2:30 PM 95.0 °F 103.2 °F 71.6 °F 47% 29.74 in 6.2 mi South 15.0 mph - N/A   Scattered Clouds
3:00 PM 95.0 °F 103.2 °F 71.6 °F 47% 29.71 in 6.2 mi South 13.8 mph - N/A   Mostly Cloudy
3:30 PM 95.0 °F 103.2 °F 71.6 °F 47% 29.71 in 6.2 mi SSW 13.8 mph - N/A   Scattered Clouds
4:00 PM 96 °F - 74 °F 40% 29.70 in 6 mi NW 3.5 mph - -   Scattered Clouds
4:00 PM 95.0 °F 101.3 °F 69.8 °F 44% 29.71 in 6.2 mi South 15.0 mph - N/A   Scattered Clouds
4:30 PM 93.2 °F 97.7 °F 68.0 °F 44% 29.68 in 6.2 mi South 13.8 mph - N/A   Scattered Clouds
5:00 PM 93.2 °F 97.7 °F 68.0 °F 44% 29.68 in 6.2 mi South 12.7 mph - N/A   Mostly Cloudy
5:30 PM 93.2 °F 97.7 °F 68.0 °F 44% 29.68 in 6.2 mi South 13.8 mph - N/A   Mostly Cloudy
6:00 PM 91.4 °F 98.4 °F 71.6 °F 52% 29.71 in 6.2 mi South 11.5 mph - N/A   Mostly Cloudy
6:30 PM 89.6 °F 96.2 °F 71.6 °F 55% 29.71 in 6.2 mi SSW 10.4 mph - N/A   Scattered Clouds
7:00 PM 92 °F - 76 °F 50% 29.71 in 6 mi SSE 3.5 mph - -   Scattered Clouds
7:00 PM 87.8 °F 95.6 °F 73.4 °F 62% 29.71 in 6.2 mi SSW 8.1 mph - N/A   Scattered Clouds
7:30 PM 87.8 °F 99.7 °F 77.0 °F 70% 29.74 in 6.2 mi SSW 11.5 mph - N/A   Scattered Clouds
8:00 PM 87.8 °F 99.7 °F 77.0 °F 70% 29.77 in 6.2 mi SSW 10.4 mph - N/A   Scattered Clouds
8:30 PM 87.8 °F 97.6 °F 75.2 °F 66% 29.77 in 6.2 mi SSW 11.5 mph - N/A   Mostly Cloudy
9:00 PM 87.8 °F 97.6 °F 75.2 °F 66% 29.80 in 6.2 mi SSW 10.4 mph - N/A   Mostly Cloudy
9:30 PM 87.8 °F 97.6 °F 75.2 °F 66% 29.80 in 6.2 mi SSW 9.2 mph - N/A   Mostly Cloudy
10:00 PM 87 °F - 76 °F 64% 29.79 in 6 mi SE 4.6 mph - -   Scattered Clouds
10:00 PM 87.8 °F 97.6 °F 75.2 °F 66% 29.80 in 6.2 mi SSW 10.4 mph - N/A   Mostly Cloudy
10:30 PM 87.8 °F 97.6 °F 75.2 °F 66% 29.83 in 6.2 mi SSW 8.1 mph - N/A   Mostly Cloudy
11:00 PM 86.0 °F 91.8 °F 71.6 °F 62% 29.83 in 6.2 mi NW 11.5 mph - N/A Thunderstorm Thunderstorm
11:30 PM 84.2 °F 89.6 °F 71.6 °F 66% 29.80 in 6.2 mi SW 5.8 mph - N/A   Mostly Cloudy